Location: Kikino
(54.4440°N, 112.0940°W)
Time: 18:11:12
(UTC+00:00)

A-11 Canister half - Pass Details

Date: 21 May 2024
Orbit: 1525 x 1683 km, 47.3° (Epoch: 12 June)

Event Time Altitude Azimuth Distance (km) Brightness Sun altitude
Rises 05:20:42 0° 223° (SW) 4,690 11.4 -10.7°
Reaches altitude 10° 05:23:56 10° 216° (SW) 3,724 10.8 -10.9°
Maximum altitude 05:32:27 40° 151° (SSE) 2,173 9.3 -11.5°
Drops below altitude 10° 05:41:15 10° 87° (E) 3,843 10.9 -12.0°
Sets 05:44:38 0° 80° (E) 4,853 11.5 -12.2°
